Flag for Germany Weather past 2 weeks in Neu-Ulm, Bavaria, Germany

Now
34 °F

Passing clouds.


Feels Like: 34 °F
Forecast: 28 / 42 °F
Wind: 2 mph from Southwest

Location: Laupheim Airport

Current Time: Mar 5, 2015 at 11:55:07 PM

Latest Report: Mar 5, 2015 at 11:20 PM


Visibility: N/A

Pressure: 30.60 "Hg

Humidity: 75%

Dew point: 27 °F

Location of Neu-UlmLocation

Historic Weather in Neu-Ulm — Graph

°F

Neu-Ulm temperature yesterday

Maximum temperature yesterday: 43 °F (at 12:20 AM)
Minimum temperature yesterday: 34 °F (at 8:20 AM)
Average temperature yesterday: 38 °F

Past Weeks' High & Low Weather Summary

 TemperatureHumidityPressure
High48 °F (Feb 20, 2:20 PM)100% (Feb 21, 6:47 PM)30.60 "Hg (Feb 21, 6:47 PM)
Low23 °F (Feb 26, 6:20 AM)39% (Feb 26, 3:20 PM)29.50 "Hg (Feb 21, 12:20 PM)
Average35 °F83%29.99 "Hg
* Reported Feb 18 10:20 PM — Mar 5 10:20 PM, Neu-Ulm, Weather by CustomWeather, © 2015

Note: Actual official high and low records may vary slightly from our data, if they occured in-between our weather recording intervals... More about our weather records

Advertising

Neu-Ulm weather history for previous 24 hours

 ConditionsComfort  
Time TempWeatherWind HumidityBarometerVisibility
10:20 PM
Thu, Mar 5
34 °FPartly cloudy.No wind75%30.60 "HgN/A
9:20 PM34 °FPartly cloudy.1 mph75%30.57 "HgN/A
8:20 PM36 °FPassing clouds.2 mph65%30.57 "HgN/A
8:00 PM36 °FPassing clouds.2 mph65%30.57 "HgN/A
7:20 PM37 °FPassing clouds.2 mph60%30.54 "HgN/A
6:20 PM37 °FPartly cloudy.3 mph60%30.54 "HgN/A
5:20 PM39 °FBroken clouds.6 mph56%30.54 "HgN/A
4:20 PM39 °FBroken clouds.7 mph52%30.51 "HgN/A
3:20 PM39 °FBroken clouds.6 mph52%30.51 "HgN/A
2:20 PM37 °FBroken clouds.7 mph60%30.51 "HgN/A
1:20 PM37 °FPartly sunny.8 mph60%30.54 "HgN/A
12:20 PM36 °FBroken clouds.7 mph65%30.54 "HgN/A
11:20 AM36 °FBroken clouds.10 mph65%30.51 "HgN/A
10:20 AM34 °FPartly sunny.9 mph75%30.51 "HgN/A
9:20 AM34 °FPartly sunny.6 mph81%30.51 "HgN/A
8:20 AM32 °FBroken clouds.3 mph93%30.48 "HgN/A
7:20 AM32 °FLight snow. Broken clouds.5 mph93%30.48 "Hg5 mi
6:20 AM32 °FSnow. Passing clouds.3 mph93%30.45 "Hg2 mi
5:20 AM34 °FLight snow. Partly cloudy.5 mph81%30.45 "HgN/A
4:20 AM34 °FLight snow. Passing clouds.5 mph81%30.45 "HgN/A
2:20 AM32 °FPartly cloudy.5 mph87%30.45 "HgN/A
1:20 AM34 °FPassing clouds.5 mph75%30.42 "HgN/A
12:20 AM32 °FPassing clouds.6 mph80%30.42 "HgN/A
11:20 PM
Wed, Mar 4
34 °FPassing clouds.5 mph75%30.39 "HgN/A
Weather by CustomWeather, © 2015

See weather overviewHow to use our weather pages